RH
71 67 63 64 64 60 53 48 48 50 51 48 48 48 48 52 52 51 50 47 43 41 39 37 34 32 30
72 72 70 71 68 61 58 57 55 54 53 51 51 52 54 53 53 47 42 38 33 29 24 21 20 19 19
74 79 78 75 73 67 64 59 57 56 54 53 54 55 55 48 42 37 29 24 21 18 17 15 15 15 16
84 82 78 78 78 72 65 59 58 57 56 56 56 51 44 36 28 23 20 16 14 11 11 11 13 17 20
91 92 84 85 86 77 70 63 59 59 58 53 46 38 29 24 21 16 13 11 12 13 15 17 18 19 16
98 98 95 89 90 89 78 66 61 57 53 44 32 25 21 17 14 12 12 13 14 17 19 18 14 10 10
98 98 98 97 97 92 79 66 57 48 34 27 24 19 15 13 13 14 16 17 19 20 17 13 11 13 15
97 98 97 98 97 93 73 58 41 30 26 22 18 15 14 13 16 18 20 20 18 15 11 11 14 15 14
97 97 97 98 97 95 69 37 28 25 22 18 15 14 16 18 18 20 18 16 13 11 13 16 15 14 16
97 97 96 96 96 93 60 47 35 27 21 18 16 19 19 21 19 18 17 13 11 15 17 16 16 17 20
97 97 96 95 95 95 92 90 33 17 18 17 18 20 22 20 21 17 13 13 18 18 16 18 20 23 27
96 96 95 94 95 95 84 36 21 18 19 19 22 23 23 24 18 12 17 21 18 18 20 24 29 31 34
96 96 95 94 94 94 56 26 22 21 21 24 26 28 24 13 14 22 21 21 21 23 27 30 34 37 36
95 95 96 92 70 44 38 27 28 28 29 30 30 16 13 20 21 22 22 23 28 30 32 34 35 37 36
94 91 88 81 54 33 30 31 32 33 36 25 14 18 22 22 22 24 27 30 32 32 33 34 37 40 39
93 82 51 36 32 32 33 34 38 40 19 17 23 24 24 25 26 28 30 32 35 36 34 30 29 35 37
53 43 39 39 36 37 40 44 41 20 22 27 27 28 28 29 30 32 36 36 35 28 22 25 27 29 32
Wind_Speed
28 28 27 27 28 28 28 27 28 29 30 32 32 32 31 30 28 28 27 28 28 29 29 29 30 31 32
31 30 30 30 29 28 29 29 28 30 31 32 32 31 30 29 27 27 27 28 29 30 30 31 32 33 33
36 33 32 31 30 30 30 31 30 30 31 31 31 30 28 27 28 28 28 29 30 30 32 32 33 34 35
36 31 29 31 31 31 31 31 31 30 31 30 29 27 27 28 28 29 31 31 32 33 34 34 33 32 31
36 34 33 30 31 32 31 31 32 31 29 29 28 28 29 29 30 31 31 32 33 33 32 32 30 29 27
44 40 35 33 33 33 32 34 32 30 29 28 29 29 30 30 30 30 31 32 32 31 29 28 27 27 29
45 46 41 37 36 36 34 34 30 29 29 30 29 31 28 29 30 30 30 30 29 28 27 27 28 30 31
47 45 43 39 38 35 33 30 29 28 29 31 28 30 29 30 29 29 29 29 28 28 29 30 31 31 30
44 44 43 40 36 31 27 28 28 28 28 29 28 29 30 30 29 29 29 30 30 30 31 32 32 31 31
40 41 42 36 28 25 25 26 27 29 26 29 29 29 31 30 31 30 30 30 31 32 32 32 32 32 33
39 38 34 28 24 23 25 25 28 29 26 29 30 31 32 32 29 30 29 31 32 33 33 33 33 35 35
35 33 30 27 24 23 22 26 28 30 29 31 32 33 32 31 28 28 30 31 32 32 33 33 33 35 37
32 29 26 25 22 20 26 27 29 32 33 34 33 32 30 30 31 29 30 29 31 33 34 34 35 36 37
27 25 23 18 21 25 28 32 32 33 34 34 32 29 29 31 33 30 31 32 32 33 36 36 36 38 40
24 20 20 23 27 30 32 33 33 34 32 30 30 30 31 32 32 32 33 34 35 37 39 41 40 40 42
22 23 25 28 30 33 34 34 33 31 29 30 30 30 33 33 34 35 35 37 39 41 43 45 46 42 43
26 27 29 31 33 35 35 33 31 29 29 30 30 32 35 35 37 38 38 40 43 44 46 47 48 46 46
Wind_Direction
256 259 264 268 273 277 279 280 284 286 289 291 292 293 294 296 298 299 301 303 304 304 305 306 306 306 306
257 262 265 270 272 274 277 280 283 285 287 289 289 292 294 295 295 297 300 300 301 302 303 304 305 306 307
260 263 267 270 272 274 276 279 280 282 284 285 288 289 290 293 296 297 299 299 301 303 304 305 306 306 305
260 262 269 271 270 272 273 278 280 281 283 284 284 286 289 292 294 297 299 301 302 302 302 303 303 303 305
258 265 267 272 268 268 273 278 278 278 279 280 282 286 289 292 295 296 298 298 298 300 302 304 306 305 304
259 259 262 266 269 271 274 274 273 274 275 276 281 284 288 290 291 293 296 297 299 301 303 303 303 304 305
260 257 258 259 265 266 268 268 268 268 272 278 281 283 285 288 291 295 296 298 300 301 302 302 303 304 304
259 258 257 255 259 259 259 261 262 267 272 275 278 282 287 290 293 296 297 298 299 300 301 302 302 302 302
261 257 252 249 249 251 255 261 267 271 274 277 281 285 289 293 296 296 296 296 296 298 300 301 301 301 302
255 252 249 242 237 244 254 263 271 275 276 280 285 288 290 292 293 293 292 293 294 297 297 297 298 299 301
249 243 236 233 237 247 254 265 270 275 279 281 285 287 289 290 287 286 289 291 293 295 295 296 299 300 301
240 235 233 235 243 254 267 268 272 278 282 284 285 285 284 283 282 282 287 289 292 293 293 296 299 300 302
238 240 242 244 249 262 265 271 277 278 279 280 281 280 280 282 284 286 286 288 291 291 293 295 296 298 300
239 241 244 256 260 261 266 268 272 275 277 279 278 278 280 284 286 289 289 291 291 292 293 295 296 298 299
241 250 257 260 262 264 268 273 275 276 276 274 277 280 283 284 287 289 290 293 294 295 295 297 297 298 298
252 257 260 263 268 271 273 276 276 275 273 275 279 281 283 286 289 290 294 295 295 296 297 297 297 297 296
258 261 264 268 271 274 276 276 273 269 272 276 280 282 283 287 289 291 293 294 295 297 298 298 298 298 296